Flag for United Kingdom Weather past 2 weeks in Cheltenham, England, United Kingdom

Now
61 °F

Passing clouds.


Feels Like: 61 °F
Forecast: 58 / 72 °F
Wind: 9 mph from Northeast

Location: Staverton Private

Current Time: Sep 18, 2014 at 7:47:10 AM

Latest Report: Sep 18, 2014 at 7:20 AM


Visibility: 2 mi

Pressure: 29.83 "Hg

Humidity: 88%

Dew point: 57 °F

Location of CheltenhamLocation

Historic Weather in Cheltenham — Graph

°F

Cheltenham temperature yesterday

Maximum temperature yesterday: 73 °F (at 2:50 PM)
Minimum temperature yesterday: 59 °F (at 6:50 AM)
Average temperature yesterday: 68 °F

Past Weeks' High & Low Weather Summary

 TemperatureHumidityPressure
High73 °F (Sep 3, 2:50 PM)100% (Sep 4, 7:20 AM)30.36 "Hg (Sep 4, 7:20 AM)
Low46 °F (Sep 9, 6:50 AM)43% (Sep 8, 5:50 PM)29.80 "Hg (Sep 18, 6:50 AM)
Average65 °F71%30.10 "Hg
* Reported Sep 3 7:20 AM — Sep 18 6:50 AM, Cheltenham, Weather by CustomWeather, © 2014

Note: Actual official high and low records may vary slightly from our data, if they occured in-between our weather recording intervals... More about our weather records

Advertising

Cheltenham weather history for previous 24 hours

 ConditionsComfort  
Time TempWeatherWind HumidityBarometerVisibility
6:50 AM
Sep 18
61 °FPassing clouds.7 mph88%29.80 "Hg2 mi
7:20 PM
Sep 17
68 °FClear.7 mph73%29.86 "Hg5 mi
6:50 PM70 °FSunny.10 mph69%29.83 "Hg10 mi
6:20 PM70 °FSunny.9 mph69%29.83 "Hg10 mi
5:50 PM70 °FSunny.9 mph64%29.83 "Hg10 mi
5:20 PM72 °FSunny.13 mph65%29.83 "Hg10 mi
4:50 PM72 °FSunny.10 mph61%29.83 "Hg10 mi
4:20 PM72 °FSunny.10 mph61%29.83 "Hg10 mi
3:50 PM72 °FPassing clouds.10 mph57%29.86 "HgN/A
3:20 PM72 °FPassing clouds.10 mph61%29.86 "HgN/A
2:50 PM73 °FPassing clouds.9 mph61%29.86 "HgN/A
2:20 PM72 °FPassing clouds.10 mph61%29.86 "HgN/A
1:50 PM70 °FPassing clouds.9 mph69%29.86 "HgN/A
1:20 PM70 °FPassing clouds.10 mph64%29.89 "HgN/A
12:50 PM68 °FPassing clouds.12 mph69%29.89 "HgN/A
12:20 PM68 °FScattered clouds.12 mph69%29.89 "Hg6 mi
11:50 AM68 °FScattered clouds.12 mph69%29.89 "Hg5 mi
11:20 AM66 °FScattered clouds.14 mph73%29.89 "Hg5 mi
10:50 AM64 °FPartly sunny.8 mph78%29.92 "Hg5 mi
10:20 AM64 °FPartly sunny.9 mph78%29.92 "Hg5 mi
9:50 AM63 °FPartly sunny.10 mph83%29.92 "Hg5 mi
9:20 AM63 °FPartly sunny.8 mph83%29.92 "Hg5 mi
8:20 AM61 °FScattered clouds.5 mph83%29.92 "Hg3 mi
7:20 AM59 °FPassing clouds.2 mph88%29.92 "Hg3 mi
Weather by CustomWeather, © 2014

See weather overviewHow to use our weather pages